星链-35891(STARLINK-35891)

导读

STARLINK-35891是美国SpaceX公司于2025年12月11日发射的星链计划卫星,该卫星部署在近地轨道,属于星链巨型卫星星座的组成部分。星链项目旨在构建全球覆盖的高速互联网卫星网络,可为偏远地区提供宽带服务,同时具备潜在军事应用价值,该卫星的发射进一步推进了星链星座的部署进程,扩充了全球低轨卫星互联网的服务覆盖能力与通信容量。

基本信息
目录编号:
67045
目录名称:
STARLINK-35891
国际标识:
2025-294R
轨道中心:
EARTH
卫星名称:
星链-35891
卫星全名:
星链-35891(STARLINK-35891)
卫星状态:
在轨 (已飞行268 天)
发射日期:
2025-12-11 UTC
国别 :
美国 (US)
星等 :
--
轨道信息
数据来源 国际轨道数据 AOE轨道数据
星历时间 2026-09-05T08:43:51+0800
17小时前
查看轨道信息
2026-08-31T23:00:00+0800
5天前
查看轨道信息
半长轴 6861.17km 6861.278km
偏心率 0.0000532 0.0001025
轨道倾角 42.995° 43.001°
近地点辐角 346.824° 277.581°
升交点赤经 105.547° 130.433°
平近点角 13.260° 307.257°
近地点 482.667km 482.437km
远地点 483.399km 483.845km
周期 94.266分钟 94.269分钟
每日圈数 15.275855 15.275495
详细信息
固有亮度:
5
最大亮度:
2.5
卫星平台:
Starlink V1.0
覆盖范围:
全球
运营商:
太空探索技术公司
运营商所在国:
美国
制造商(研发单位):
太空探索技术公司
制造商所在国:
美国
使用方式:
暂无
卫星简介
Starlink 计划是 SpaceX 推出的全球卫星互联网项目,通过发射低轨道卫星,为全球尤其是偏远地区提供高速、低延迟的互联网服务。自 2019 年起,Starlink 已部署数千颗卫星,旨在缩小全球数字鸿沟,推动互联网普及。该项目还为军事、航空等行业提供通信支持,带来广泛经济效益。
2D轨道图
3D轨道图
轨道高度分析图
轨道倾角分析图
轨道综合分析图
查看轨道综合分析图